EW3517 Weather Reports


Display with metric or nautical units.
time (UTC)temp
F
wind
direction
speed
MPH
gust
MPH
rain 1hr
in
rain 24hr
in
rain mn
in
humidity
%
barometer
mb
20260506041530 50 11 0.0 0.0 0.00 0.00 0.00 72 1010.8
20260506040028 50 11 0.0 0.0 0.00 0.00 0.00 74 1010.7
20260506034528 50 17 0.0 0.0 0.00 0.00 0.00 76 1010.6
20260506033024 49 360 0.0 0.0 0.00 0.00 0.00 79 1010.2
20260506031525 50 360 0.0 0.0 0.00 0.00 0.00 80 1009.4
20260506030024 50 28 0.0 1.0 0.00 0.00 0.00 80 1009.6
20260506024531 50 5 0.0 0.0 0.00 0.00 0.00 81 1009.8
20260506023021 50 36 0.0 0.0 0.00 0.00 0.00 81 1010.0
20260506021519 50 23 0.0 1.0 0.00 0.00 0.00 82 1009.6
20260506020017 50 13 0.0 0.0 0.00 0.00 0.00 82 1009.3
20260506014515 50 11 0.0 0.0 0.00 0.00 0.00 81 1009.2
20260506013018 50 29 0.0 0.0 0.00 0.00 0.00 80 1009.0
20260506011512 50 38 0.0 0.0 0.00 0.00 0.00 80 1008.8
20260506010011 50 22 0.0 0.0 0.00 0.00 0.00 80 1008.5
20260506004505 51 5 0.0 0.0 0.00 0.00 0.00 79 1007.8
20260506003005 51 66 0.0 0.0 0.00 0.00 0.00 79 1007.7
20260506001503 51 321 0.0 0.0 0.00 0.00 0.00 78 1007.5
20260506000002 52 22 0.0 0.0 0.00 0.00 0.00 77 1007.4
20260505234618 52 346 0.0 0.0 0.00 0.00 0.00 75 1007.2
20260505233059 52 80 0.0 0.0 0.00 0.00 0.00 74 1007.8
20260505231559 52 35 0.0 0.0 0.00 0.00 0.00 74 1007.6
20260505230054 53 5 0.0 1.0 0.00 0.00 0.00 73 1006.8
20260505224551 53 355 0.0 0.0 0.00 0.00 0.00 73 1006.9
20260505223100 53 26 0.0 0.0 0.00 0.00 0.00 73 1006.9
20260505221559 53 209 0.0 0.0 0.00 0.00 0.00 73 1006.4
20260505220057 54 19 0.0 0.0 0.00 0.00 0.00 73 1006.6
20260505214602 54 109 0.0 0.0 0.00 0.00 0.00 72 1005.9
20260505213046 55 196 0.0 0.0 0.00 0.00 0.00 72 1005.8
20260505211543 55 18 0.0 0.0 0.00 0.00 0.00 72 1006.0
20260505210043 55 63 0.0 0.0 0.00 0.00 0.00 73 1005.2
20260505204541 55 5 0.0 0.0 0.00 0.00 0.00 73 1006.2
20260505203038 55 355 0.0 0.0 0.00 0.00 0.00 73 1005.7
20260505201536 55 51 0.0 0.0 0.00 0.00 0.00 74 1005.2
20260505200037 55 34 0.0 1.0 0.00 0.00 0.00 75 1005.3
20260505194535 55 23 0.0 0.0 0.00 0.00 0.00 76 1005.4
20260505193033 55 32 0.0 0.0 0.00 0.00 0.00 78 1005.1
20260505191531 55 77 0.0 0.0 0.00 0.00 0.00 79 1004.9
20260505190031 55 40 0.0 0.0 0.00 0.00 0.00 79 1005.0
20260505184527 56 5 0.0 0.0 0.00 0.00 0.00 79 1004.8
20260505183039 56 46 0.0 0.0 0.00 0.00 0.00 77 1004.8
20260505181522 57 53 0.0 0.0 0.00 0.00 0.00 77 1004.4
20260505180120 57 106 0.0 0.0 0.00 0.00 0.00 77 1004.2
20260505174516 57 31 0.0 0.0 0.00 0.00 0.00 79 1003.8
20260505173021 57 355 0.0 0.0 0.00 0.00 0.00 79 1003.6
20260505171513 57 27 0.0 0.0 0.00 0.00 0.00 80 1003.2
20260505170013 57 37 0.0 0.0 0.00 0.00 0.00 80 1003.2
20260505164510 57 5 0.0 0.0 0.00 0.00 0.00 82 1002.9
20260505163009 57 23 0.0 0.0 0.00 0.00 0.00 81 1002.3
20260505161503 58 24 0.0 0.0 0.00 0.00 0.00 81 1001.7
20260505160109 59 40 0.0 1.0 0.00 0.00 0.00 81 1001.1
20260505153052 62 12 0.0 1.0 0.00 0.00 0.00 81 1000.5
20260505151547 63 57 0.0 0.0 0.00 0.00 0.00 80 1000.0
20260505124525 69 79 0.0 0.0 0.00 0.00 0.00 81 997.7
20260505123023 69 33 0.0 0.0 0.00 0.00 0.00 80 997.5
20260505121524 69 14 0.0 0.0 0.00 0.00 0.00 79 997.3
20260505120019 70 14 0.0 0.0 0.00 0.00 0.00 77 997.2
20260505114515 70 14 0.0 0.0 0.00 0.00 0.00 76 996.9
20260505113013 71 14 0.0 0.0 0.00 0.00 0.00 74 996.4
20260505111511 72 239 0.0 0.0 0.00 0.00 0.00 73 995.8
20260505101513 72 240 0.0 0.0 0.00 0.00 0.00 73 995.0
20260505100007 73 67 0.0 0.0 0.00 0.00 0.00 73 994.9
20260505094517 73 304 0.0 0.0 0.00 0.00 0.00 73 994.8
20260505093006 73 186 0.0 0.0 0.00 0.00 0.00 73 994.8
20260505091506 73 33 0.0 0.0 0.00 0.00 0.00 73 994.8
20260505090001 73 90 0.0 0.0 0.00 0.00 0.00 73 994.9
20260505084500 73 288 0.0 1.0 0.00 0.00 0.00 73 995.1
20260505083100 73 309 0.0 1.0 0.00 0.00 0.00 73 995.2
20260505081558 73 15 0.0 0.0 0.00 0.00 0.00 73 995.4
20260505080105 73 156 0.0 0.0 0.00 0.00 0.00 73 995.5
20260505074555 73 320 0.0 1.0 0.00 0.00 0.00 73 995.6
20260505073055 73 20 0.0 0.0 0.00 0.00 0.00 73 995.7
20260505071551 73 209 0.0 0.0 0.00 0.00 0.00 73 995.9
20260505070054 73 339 0.0 0.0 0.00 0.00 0.00 72 996.2
20260505064547 73 76 0.0 0.0 0.00 0.00 0.00 71 996.4
20260505063107 73 249 0.0 0.0 0.00 0.00 0.00 72 996.4
20260505061545 73 306 0.0 0.0 0.00 0.00 0.00 71 996.5
20260505060042 73 68 0.0 0.0 0.00 0.00 0.00 71 996.7
20260505054541 74 65 0.0 0.0 0.00 0.00 0.00 71 997.0
20260505053040 74 218 0.0 0.0 0.00 0.00 0.00 70 997.1
20260505051535 74 130 0.0 0.0 0.00 0.00 0.00 70 997.1